Location: Bougoudala
(13.2282°N, 4.9477°W)
Time: 20:42:53
(UTC+00:00)

Cosmos 1603 - Pass Details

Date: 29 January 2020
Orbit: 831 x 859 km, 71.0° (Epoch: 19 February)

Event Time Altitude Azimuth Distance (km) Brightness Sun altitude
Rises 20:00:11 0° 342° (NNW) 3,379 6.9 -24.5°
Reaches altitude 10° 20:02:37 10° 341° (NNW) 2,441 6.1 -25.1°
Maximum altitude 20:08:13 81° 255° (WSW) 845 3.6 -26.4°
Drops below altitude 10° 20:13:47 10° 168° (SSE) 2,430 6.1 -27.7°
Sets 20:16:12 0° 167° (SSE) 3,363 6.8 -28.3°
